Location: Arboyeti
(42.1122°N, 44.6017°E)
Time: 05:50:06
(UTC+00:00)

CZ-4C R/B - Pass Details

Date: 19 April 2021
Orbit: 612 x 1390 km, 63.4° (Epoch: 09 May)

Event Time Altitude Azimuth Distance (km) Brightness Sun altitude
Rises 22:45:45 0° 327° (NNW) 3,802 5.9 -31.2°
Reaches altitude 10° 22:48:19 10° 332° (NNW) 2,955 5.3 -31.0°
Maximum altitude 22:55:20 50° 48° (NE) 1,533 3.7 -30.3°
Drops below altitude 10° 23:03:23 10° 122° (ESE) 3,395 5.3 -29.4°
Sets 23:06:31 0° 127° (SE) 4,408 5.9 -29.1°
